Zurück zum Katalog

CZ-4 DEB

AktivSSO
NORAD 26222·DEBRIS·🇨🇳 China

Gestartet Oct 14, 1999 von Taiyuan Satellite Launch Center

Loading…

Nächste Überflüge (nächste 24 Stunden)

TLE

AktuellSource: Space-Track

Epoche: Sep 14, 2026, 14:23 UTC

1 26222U 99057DL  26257.59949011  .00000656  00000-0  15853-3 0  9996
2 26222  98.4699 319.9975 0068383 169.2489 191.0188 14.55116511396771

Verfolge CZ-4 DEB in Echtzeit mit AllMySat

Download on the App Store